Location: G�ppingen
(48.7089°N, 9.6563°E)
Time: 04:12:47
(UTC+02:00)

M-CUBED/EXP-1 PRIME - Pass Details

Date: 23 March 2019
Orbit: 430 x 671 km, 101.7° (Epoch: 19 April)

Event Time Altitude Azimuth Distance (km) Brightness Sun altitude
Rises 22:04:13 0° 7° (N) 2,922 ? -31.3°
Reaches altitude 10° 22:06:55 10° 349° (N) 2,045 ? -31.6°
Maximum altitude 22:09:58 19° 306° (NW) 1,581 ? -31.9°
Drops below altitude 10° 22:13:05 10° 263° (W) 2,089 ? -32.2°
Sets 22:15:53 0° 245° (WSW) 3,010 ? -32.5°
